QPF
0.04 0.01 0.00 0.00 0.00 0.00 0.00 0.00 0.00 0.00 0.01 0.01 0.01 0.01 0.00 0.00 0.00 0.00 0.01 0.01 0.00 0.00 0.00 0.00 0.00 0.01 0.01 0.01 0.00 0.00 0.00 0.00 0.00
0.00 0.00 0.00 0.00 0.00 0.00 0.00 0.00 0.00 0.00 0.01 0.01 0.01 0.00 0.00 0.00 0.00 0.00 0.00 0.01 0.01 0.00 0.00 0.00 0.00 0.00 0.01 0.01 0.00 0.00 0.00 0.00 0.00
0.00 0.00 0.00 0.00 0.00 0.00 0.00 0.00 0.00 0.00 0.00 0.01 0.02 0.02 0.01 0.00 0.00 0.00 0.00 0.01 0.01 0.00 0.00 0.00 0.00 0.00 0.00 0.00 0.00 0.00 0.00 0.00 0.00
0.00 0.00 0.00 0.00 0.00 0.00 0.01 0.00 0.00 0.00 0.00 0.02 0.02 0.01 0.01 0.00 0.00 0.00 0.01 0.01 0.01 0.00 0.00 0.00 0.00 0.00 0.00 0.00 0.00 0.00 0.00 0.00 0.00
0.00 0.00 0.00 0.00 0.00 0.01 0.02 0.02 0.00 0.00 0.01 0.01 0.01 0.00 0.00 0.00 0.00 0.00 0.01 0.01 0.00 0.00 0.01 0.00 0.00 0.00 0.00 0.00 0.00 0.00 0.00 0.00 0.00
0.00 0.00 0.00 0.00 0.01 0.01 0.01 0.00 0.00 0.00 0.00 0.00 0.00 0.02 0.01 0.00 0.00 0.00 0.00 0.01 0.01 0.01 0.01 0.01 0.01 0.01 0.01 0.01 0.00 0.00 0.00 0.00 0.00
0.00 0.00 0.00 0.00 0.00 0.00 0.00 0.00 0.00 0.00 0.01 0.00 0.00 0.02 0.00 0.00 0.00 0.00 0.00 0.00 0.00 0.00 0.01 0.01 0.00 0.00 0.00 0.01 0.01 0.01 0.00 0.00 0.00
0.00 0.00 0.00 0.00 0.00 0.00 0.00 0.00 0.00 0.00 0.00 0.01 0.01 0.02 0.00 0.00 0.00 0.00 0.00 0.00 0.00 0.00 0.00 0.00 0.00 0.00 0.00 0.00 0.00 0.00 0.00 0.00 0.00
0.00 0.00 0.00 0.00 0.00 0.00 0.00 0.00 0.00 0.00 0.00 0.00 0.00 0.01 0.00 0.00 0.00 0.00 0.01 0.01 0.00 0.00 0.00 0.00 0.00 0.00 0.00 0.01 0.00 0.00 0.01 0.00 0.00
0.00 0.00 0.00 0.00 0.00 0.00 0.00 0.00 0.00 0.00 0.00 0.00 0.00 0.01 0.00 0.00 0.00 0.01 0.01 0.02 0.04 0.04 0.02 0.01 0.00 0.00 0.00 0.00 0.01 0.00 0.01 0.01 0.01
0.00 0.00 0.00 0.00 0.00 0.00 0.00 0.00 0.00 0.00 0.00 0.00 0.00 0.00 0.00 0.00 0.00 0.00 0.01 0.02 0.02 0.01 0.01 0.01 0.01 0.00 0.00 0.00 0.01 0.00 0.00 0.01 0.00
0.00 0.00 0.00 0.00 0.00 0.00 0.00 0.00 0.00 0.00 0.00 0.00 0.00 0.00 0.00 0.00 0.00 0.00 0.00 0.00 0.00 0.00 0.00 0.00 0.00 0.00 0.00 0.00 0.01 0.00 0.00 0.00 0.00
0.00 0.00 0.00 0.00 0.00 0.00 0.00 0.00 0.00 0.00 0.00 0.00 0.00 0.00 0.00 0.00 0.00 0.00 0.00 0.00 0.00 0.00 0.00 0.00 0.00 0.00 0.00 0.00 0.02 0.00 0.00 0.00 0.00
0.00 0.00 0.00 0.00 0.00 0.00 0.00 0.00 0.00 0.00 0.00 0.00 0.00 0.00 0.00 0.00 0.00 0.00 0.00 0.00 0.00 0.00 0.00 0.00 0.01 0.00 0.00 0.00 0.01 0.00 0.00 0.00 0.00
0.00 0.00 0.00 0.00 0.00 0.00 0.00 0.00 0.00 0.00 0.00 0.00 0.00 0.00 0.00 0.00 0.00 0.00 0.00 0.00 0.00 0.00 0.00 0.00 0.00 0.01 0.00 0.00 0.00 0.01 0.00 0.00 0.00
0.00 0.00 0.00 0.00 0.00 0.00 0.00 0.00 0.00 0.00 0.00 0.00 0.00 0.00 0.00 0.00 0.00 0.00 0.00 0.00 0.00 0.00 0.00 0.00 0.00 0.00 0.00 0.00 0.01 0.01 0.01 0.00 0.00
0.00 0.00 0.00 0.00 0.00 0.00 0.00 0.00 0.00 0.00 0.00 0.00 0.00 0.00 0.00 0.00 0.00 0.00 0.00 0.00 0.00 0.00 0.00 0.00 0.00 0.00 0.00 0.00 0.00 0.00 0.00 0.01 0.00
0.00 0.00 0.00 0.00 0.00 0.00 0.00 0.00 0.00 0.00 0.00 0.00 0.00 0.00 0.00 0.00 0.00 0.00 0.00 0.00 0.00 0.00 0.00 0.00 0.00 0.00 0.00 0.00 0.00 0.00 0.00 0.01 0.01
0.00 0.00 0.00 0.00 0.00 0.00 0.00 0.00 0.00 0.00 0.00 0.00 0.00 0.00 0.00 0.00 0.00 0.00 0.00 0.00 0.00 0.00 0.00 0.00 0.00 0.00 0.00 0.00 0.00 0.00 0.00 0.00 0.00
0.00 0.00 0.00 0.00 0.00 0.00 0.00 0.00 0.00 0.00 0.00 0.00 0.00 0.00 0.00 0.00 0.00 0.00 0.00 0.00 0.00 0.00 0.00 0.00 0.00 0.00 0.00 0.00 0.00 0.00 0.00 0.00 0.00
MSLP
1014.13 1014.62 1014.75 1015.15 1015.59 1016.20 1016.78 1017.03 1017.38 1017.53 1017.62 1017.65 1017.74 1017.95 1018.07 1018.17 1018.55 1018.87 1019.07 1019.18 1019.20 1019.25 1019.35 1019.24 1019.28 1019.16 1019.22 1019.35 1019.41 1019.32 1019.27 1019.18 1019.14
1014.24 1014.51 1015.09 1015.49 1015.80 1016.39 1016.93 1017.33 1017.60 1017.82 1017.91 1017.99 1018.11 1018.16 1018.32 1018.63 1018.95 1019.40 1019.51 1019.54 1019.59 1019.59 1019.73 1019.71 1019.73 1019.74 1019.83 1019.84 1019.80 1019.76 1019.75 1019.68 1019.43
1014.18 1014.66 1015.14 1015.58 1016.06 1016.42 1017.06 1017.58 1017.80 1018.05 1018.13 1018.23 1018.47 1018.66 1018.81 1019.08 1019.54 1019.86 1020.01 1020.00 1020.03 1020.10 1020.29 1020.24 1020.29 1020.28 1020.32 1020.44 1020.37 1020.20 1020.28 1020.19 1020.02
1014.41 1014.54 1015.26 1015.68 1016.15 1016.42 1017.14 1017.70 1018.01 1018.20 1018.27 1018.42 1018.83 1019.12 1019.21 1019.38 1019.90 1020.26 1020.42 1020.33 1020.49 1020.61 1020.71 1020.69 1020.69 1020.72 1020.84 1020.97 1020.88 1020.77 1020.78 1020.71 1020.56
1014.64 1014.75 1015.43 1015.78 1016.24 1016.56 1017.21 1017.81 1018.20 1018.37 1018.52 1018.75 1019.08 1019.38 1019.45 1019.86 1020.33 1020.74 1020.80 1020.77 1020.91 1021.13 1021.00 1021.13 1021.27 1021.31 1021.40 1021.34 1021.36 1021.24 1021.29 1021.12 1021.01
1014.72 1015.00 1015.63 1015.97 1016.35 1016.76 1017.30 1017.93 1018.33 1018.63 1018.86 1019.00 1019.33 1019.54 1019.88 1020.22 1020.69 1020.92 1021.00 1021.15 1021.31 1021.56 1021.60 1021.67 1021.85 1021.80 1021.79 1021.89 1021.84 1021.77 1021.82 1021.64 1021.42
1014.68 1015.27 1015.83 1015.94 1016.57 1016.98 1017.37 1018.00 1018.46 1018.80 1019.12 1019.34 1019.60 1019.93 1020.22 1020.55 1020.87 1021.17 1021.33 1021.47 1021.78 1021.88 1022.02 1022.13 1022.29 1022.35 1022.27 1022.25 1022.31 1022.27 1022.25 1022.17 1022.04
1014.59 1015.45 1016.07 1016.14 1016.68 1017.14 1017.46 1018.02 1018.50 1018.80 1019.15 1019.44 1019.80 1020.15 1020.53 1020.95 1021.10 1021.43 1021.60 1021.78 1021.96 1022.22 1022.43 1022.58 1022.68 1022.68 1022.67 1022.66 1022.78 1022.74 1022.71 1022.67 1022.63
1014.28 1015.10 1015.79 1016.06 1016.50 1017.13 1017.52 1017.77 1018.38 1018.78 1019.07 1019.47 1019.95 1020.35 1020.77 1021.30 1021.47 1021.76 1021.90 1022.07 1022.17 1022.35 1022.68 1022.97 1023.07 1023.15 1023.08 1023.08 1023.19 1023.06 1023.08 1023.06 1023.09
1013.87 1014.76 1015.30 1015.81 1016.25 1016.65 1017.33 1017.67 1018.17 1018.64 1019.09 1019.48 1019.93 1020.42 1020.97 1021.63 1021.78 1022.17 1022.30 1022.37 1022.43 1022.63 1022.87 1023.10 1023.36 1023.50 1023.54 1023.45 1023.55 1023.47 1023.49 1023.51 1023.47
1013.36 1014.36 1014.91 1015.50 1016.00 1016.39 1017.02 1017.66 1018.11 1018.54 1018.89 1019.37 1019.98 1020.47 1021.04 1021.55 1022.00 1022.34 1022.74 1022.81 1022.81 1022.84 1023.13 1023.31 1023.52 1023.76 1023.98 1023.78 1023.86 1023.96 1023.98 1024.00 1024.05
1012.59 1013.64 1014.57 1015.08 1015.56 1016.11 1016.82 1017.44 1017.96 1018.56 1018.97 1019.54 1019.93 1020.30 1020.83 1021.57 1022.14 1022.59 1022.94 1023.14 1023.18 1023.23 1023.50 1023.69 1023.84 1024.13 1024.17 1024.11 1024.16 1024.43 1024.48 1024.51 1024.53
1012.08 1013.04 1013.94 1014.70 1015.32 1015.94 1016.72 1017.33 1018.13 1018.77 1019.27 1019.78 1020.06 1020.45 1020.97 1021.51 1022.02 1022.56 1022.97 1023.31 1023.54 1023.66 1023.84 1024.01 1024.11 1024.36 1024.42 1024.31 1024.47 1024.82 1024.90 1024.89 1024.92
1011.55 1012.56 1013.38 1014.40 1015.25 1015.94 1016.67 1017.35 1018.05 1019.00 1019.57 1020.05 1020.44 1020.94 1021.65 1021.81 1022.02 1022.50 1022.87 1023.28 1023.70 1023.93 1024.31 1024.31 1024.34 1024.52 1024.67 1024.68 1024.74 1025.07 1025.20 1025.20 1025.29
1011.22 1012.11 1013.23 1014.25 1015.27 1016.01 1016.52 1017.30 1018.03 1019.03 1019.67 1020.37 1020.98 1021.51 1021.94 1022.14 1022.67 1022.91 1023.17 1023.51 1023.84 1024.16 1024.54 1024.56 1024.67 1024.72 1024.82 1025.02 1025.01 1025.27 1025.50 1025.53 1025.63
1010.84 1011.74 1013.04 1014.07 1015.03 1015.82 1016.43 1017.18 1017.99 1019.08 1019.73 1020.64 1021.46 1022.02 1022.31 1022.68 1022.97 1023.18 1023.49 1023.72 1024.05 1024.32 1024.60 1024.84 1024.86 1024.98 1025.06 1025.18 1025.25 1025.38 1025.62 1025.81 1025.93
1010.31 1011.44 1012.63 1014.02 1014.81 1015.60 1016.21 1016.81 1017.84 1018.84 1019.48 1020.45 1021.58 1022.49 1022.93 1022.94 1023.05 1023.41 1023.59 1023.90 1024.05 1024.26 1024.41 1024.62 1024.93 1025.14 1025.38 1025.57 1025.61 1025.64 1025.70 1025.91 1026.13
1009.88 1011.14 1012.21 1013.68 1014.50 1015.09 1015.83 1016.51 1017.17 1018.18 1019.26 1019.96 1020.53 1022.08 1022.42 1022.84 1023.26 1023.50 1023.76 1024.07 1024.24 1024.37 1024.39 1024.47 1024.80 1025.13 1025.48 1025.72 1025.87 1025.86 1025.84 1025.91 1026.16
1009.59 1010.65 1011.77 1013.14 1014.14 1014.86 1015.48 1016.17 1016.89 1017.61 1018.59 1019.59 1019.84 1020.02 1020.42 1021.91 1023.43 1023.58 1023.73 1023.94 1024.29 1024.41 1024.48 1024.58 1024.64 1025.08 1025.39 1025.66 1025.90 1025.95 1025.98 1026.00 1026.18
1009.22 1010.29 1011.39 1012.62 1013.61 1014.56 1015.12 1015.99 1016.68 1017.37 1018.06 1018.77 1019.46 1019.85 1020.30 1020.61 1021.95 1023.21 1023.63 1023.83 1023.99 1024.09 1024.28 1024.52 1024.68 1024.87 1025.25 1025.62 1025.83 1025.95 1026.04 1026.02 1026.17
Thickness
5724 5721 5724 5724 5722 5718 5714 5716 5716 5716 5717 5719 5719 5719 5719 5719 5716 5714 5712 5710 5708 5707 5705 5704 5702 5701 5699 5696 5694 5692 5690 5688 5686
5720 5722 5719 5718 5719 5715 5712 5712 5713 5714 5715 5715 5716 5717 5718 5716 5714 5711 5709 5707 5706 5705 5703 5701 5699 5698 5696 5694 5692 5690 5688 5686 5685
5720 5718 5717 5717 5715 5715 5710 5709 5710 5711 5713 5713 5713 5713 5714 5713 5710 5708 5706 5704 5703 5702 5699 5698 5696 5695 5694 5691 5689 5689 5686 5683 5682
5714 5718 5714 5714 5713 5714 5709 5707 5707 5709 5711 5711 5710 5709 5711 5710 5707 5704 5704 5702 5700 5698 5697 5696 5694 5693 5690 5688 5686 5686 5683 5681 5679
5708 5713 5709 5710 5711 5712 5708 5705 5705 5707 5708 5708 5707 5707 5709 5707 5704 5702 5700 5700 5697 5695 5695 5693 5691 5689 5687 5686 5684 5683 5681 5679 5678
5704 5707 5705 5707 5708 5708 5706 5702 5702 5703 5704 5705 5705 5706 5705 5704 5701 5700 5699 5697 5694 5692 5691 5689 5687 5687 5685 5683 5681 5680 5678 5677 5676
5699 5701 5700 5705 5703 5703 5704 5701 5699 5700 5701 5702 5703 5702 5702 5701 5699 5698 5696 5694 5691 5690 5689 5686 5684 5683 5682 5681 5679 5678 5676 5675 5673
5699 5696 5695 5700 5701 5699 5701 5699 5696 5698 5700 5700 5700 5700 5700 5698 5696 5695 5694 5692 5690 5687 5686 5684 5682 5682 5680 5679 5677 5676 5674 5673 5670
5697 5694 5692 5696 5698 5697 5698 5698 5695 5696 5697 5698 5697 5697 5696 5694 5693 5692 5691 5690 5688 5686 5683 5681 5680 5679 5679 5677 5675 5675 5673 5671 5669
5695 5691 5692 5693 5696 5696 5695 5697 5695 5694 5695 5695 5695 5695 5694 5691 5691 5689 5688 5687 5686 5684 5682 5680 5678 5677 5676 5675 5674 5673 5672 5670 5668
5692 5689 5690 5691 5693 5695 5693 5694 5693 5693 5693 5693 5692 5692 5691 5689 5688 5686 5684 5684 5683 5682 5679 5678 5677 5675 5673 5674 5672 5671 5670 5668 5666
5691 5689 5688 5689 5691 5692 5691 5690 5691 5691 5691 5690 5691 5691 5690 5687 5684 5682 5681 5681 5680 5679 5676 5675 5674 5672 5672 5673 5671 5669 5667 5666 5664
5687 5687 5687 5687 5688 5690 5689 5689 5686 5685 5685 5685 5688 5688 5687 5684 5683 5680 5679 5679 5677 5676 5674 5672 5672 5670 5670 5671 5670 5666 5665 5664 5663
5683 5683 5684 5683 5683 5685 5685 5683 5682 5680 5679 5680 5682 5682 5681 5681 5681 5679 5678 5677 5675 5673 5670 5670 5669 5668 5667 5668 5667 5665 5664 5663 5661
5677 5679 5678 5677 5677 5679 5680 5678 5678 5675 5675 5675 5675 5675 5675 5676 5675 5675 5674 5673 5672 5670 5667 5667 5666 5666 5665 5664 5665 5663 5662 5661 5659
5673 5675 5673 5671 5673 5674 5675 5675 5673 5671 5670 5669 5666 5666 5668 5669 5670 5671 5670 5669 5668 5667 5665 5664 5664 5664 5663 5662 5662 5661 5660 5659 5657
5672 5672 5670 5665 5667 5669 5671 5672 5669 5668 5667 5665 5658 5654 5659 5664 5667 5666 5667 5666 5666 5665 5664 5663 5662 5661 5660 5659 5658 5658 5658 5657 5655
5667 5668 5666 5661 5663 5667 5668 5670 5671 5668 5665 5665 5662 5652 5655 5658 5661 5663 5664 5663 5663 5663 5663 5662 5660 5659 5658 5656 5656 5655 5656 5656 5654
5664 5665 5663 5659 5659 5661 5665 5667 5667 5667 5663 5661 5667 5671 5672 5657 5653 5658 5660 5661 5660 5660 5660 5660 5659 5657 5656 5654 5653 5653 5653 5653 5652
5661 5661 5659 5657 5657 5655 5660 5661 5662 5662 5663 5663 5662 5666 5667 5669 5661 5654 5655 5658 5659 5659 5658 5658 5657 5655 5654 5653 5651 5651 5650 5651 5650